STARLINK-31306, 58876

Orbit data source: Space-Track

STARLINK-31306, 58876 is a payload satellite owned by SpaceX/Seattle (US) in LEO that was launched on Mon, 29 Jan 2024 UTC via an FALCON 9 launch vehicle from the Air Force Western Test Range (AFWTR). Payload-class satellites include a variety of spacecraft equipped with specific instruments for various scientific and technological missions. These include communications satellites like Starlink; space stations such as the ISS; scientific satellites like the Hubble; Earth observation satellites from companies like Planet Labs, Umbra, and HawkEye 360; GPS; miniature CubeSats for education and research; and military/defense satellites.

Loading next visibility...
Identifier
58876, 2024-020A
Orbit
LEO
Country
Flag of USUS
Related business
Manufacturer
SpaceX/Seattle
Mission
Operational Commercial Communications
Bus & Motor
STARLINK V2M, Unknown motor
Mass
730 kg wet, ~700 kg dry
Launch date (UTC)
2024-01-29 (2 years ago)
Launch vehicle
FALCON 9
Launch site
Air Force Western Test Range (AFWTR)
Object type
Payload
Rocket body
Debris
Shape & HBR
Box + 2 Pan, 17.7 m
Radar Cross Section
33.884 m², Large (>1 m²)

Expand to show TLE details & history
Last TLE update: 2 days ago

TLE from 2 days ago
0 STARLINK-31306
1 58876U 24020A   26171.35963801  .00000723  00000-0  32541-4 0  9995
2 58876  53.1596 204.5892 0001088  82.7259 277.3867 15.34393073134988
Epoch: 2026-06-20T08:37Z
TLE epoch observation values (Epoch: 2026-06-20T08:37:52.724Z)
Latitude
-0.00002°
Longitude
166.54411°
Altitude
463.53 km
Speed
7.636 km/s
True Right ascension
13h 38m 21s
True Declination
0° 00' 00"
Sunlit
Object was in full shadow at epoch
Visualization orbit readout
Latitude
Unknown
Longitude
Unknown
Altitude
Unknown
Speed
Unknown
Apparent Right ascension
Unknown
Apparent Declination
Unknown
Sunlit
N/A
Visualization observer readout
Local Sidereal Time
21:24:49
Azimuth
Unknown
Elevation
Unknown
Doppler factor
Unknown
Orbital elements
Apogee altitude
463.725 km
Perigee altitude
462.236 km
Semi-major axis
6,841.118 km
Eccentricity
0.00011
Inclination
53.1596°
RAAN
204.5892°
Arg. of periapsis
82.7259°
True anomaly
277.37434°
Mean anomaly
277.3867°
Eccentric anomaly
277.38052°
Mean motion
3.83577 °/min
Orbital period
93.85 mins
BSTAR
0.000032541
Loading maneuver chart data...
Computing Atmospheric mass density...
Loading historical data...
Loading historical data...
Loading historical data...
Loading historical data...
Loading historical data...
Loading historical data...
Loading historical data...

Documentation

Showing up to 5 results
|